Regional Weather Roundup
Issued by NWS

Home | Current Version | Previous Version | Text Only | Print | Product List | Glossary Off
Versions: 1 2 3 4 5 6 7 8 9 10 11 12 13 14 15 16 17 18 19 20 21 22 23 24 25 26 27 28 29 30 31 32 33 34 35 36 37 38 39 40 41 42 43 44 45 46 47 48 49 50

000
ASUS43 KFSD 180810
RWRSD

WEATHER ROUNDUP FOR SOUTH DAKOTA
NATIONAL WEATHER SERVICE SIOUX FALLS SD
200 AM CST WED JAN 18 2017

NOTE: "FAIR" INDICATES FEW OR NO CLOUDS BELOW 12,000 FEET WITH NO
SIGNIFICANT WEATHER AND/OR OBSTRUCTIONS TO VISIBILITY.


SDZ001>005-009-010-012>017-180900-
NORTHWEST AND NORTH CENTRAL SOUTH DAKOTA

CITY           SKY/WX    TMP DP  RH WIND       PRES   REMARKS
BUFFALO          N/A     33  21  61 W6        29.75S WCI  28
FAITH            N/A     28  18  66 S6        29.83R WCI  22
MOBRIDGE       CLOUDY    16   9  74 SE8       29.79S WCI   5
$$

SDZ012>016-024>037-041>051-057-063-072>074-180900-
SOUTHWEST AND SOUTH CENTRAL SOUTH DAKOTA

CITY           SKY/WX    TMP DP  RH WIND       PRES   REMARKS
RAPID CTY ARPT CLOUDY    31  19  61 NW7       29.85S WCI  24
PIERRE         CLOUDY    19  15  84 CALM      29.86S
CUSTER         CLOUDY    35  16  45 W7        29.90S WCI  29
ELLSWORTH AFB  CLOUDY    32  19  59 W7        29.84F WCI  26
PHILIP         CLOUDY    27  18  69 W10       29.87R WCI  17
PINE RIDGE     CLOUDY    25  15  66 W6        29.90S WCI  18
SPEARFISH      FAIR      41  19  42 CALM      29.85F
WINNER         FAIR      32  20  61 SW10      29.87S WCI  24
$$

SDZ004>011-016>023-039-040-180900-
NORTHEAST SOUTH DAKOTA

CITY           SKY/WX    TMP DP  RH WIND       PRES   REMARKS
ABERDEEN       CLOUDY    17  12  80 S10       29.85S WCI   5
WATERTOWN      CLOUDY    19  18  95 S9        29.86S WCI   8
BROOKINGS      CLOUDY    24  22  91 SW9       29.88S WCI  14
SISSETON         N/A     34  25  69 W16       29.78F WCI  24
$$

SDZ017-020-022-023-036>040-048>070-180900-
SOUTHEAST SOUTH DAKOTA

CITY           SKY/WX    TMP DP  RH WIND       PRES   REMARKS
SIOUX FALLS    CLOUDY    30  28  92 S14       29.93F WCI  19
HURON          CLOUDY    22  21  96 SE6       29.89R WCI  14
CHAMBERLAIN    CLOUDY    19  17  90 CALM      29.88S
MITCHELL       CLOUDY    21  21 100 CALM      29.91R
YANKTON        CLOUDY    30  27  86 S7        29.95S WCI  23
$$

ABBREVIATIONS USED IN REMARKS
   TC - TEMPERATURE IN CELSIUS
  WCI - WIND CHILL INDEX
   HX - HEAT INDEX
  VSB - VISIBILITY




USA.gov is the U.S. government's official web portal to all federal, state and local government web resources and services.